Pecs, Hungary

3:26 AM CEST on July 22, 2018 (GMT +0200)
Pecs

Weather History for LHPP - April, 2018

Change the Weather History Date:

Tuesday, April 17, 2018

  Actual Average Record
Temperature  
Mean Temperature 58 °F -  
Max Temperature 62 °F 66 °F - ()
Min Temperature 54 °F 48 °F - ()
Degree Days  
Heating Degree Days 7    
Growing Degree Days 8 (Base 50)    
Moisture  
Dew Point 52 °F    
Average Humidity 73    
Maximum Humidity 88    
Minimum Humidity 60    
Precipitation  
Precipitation 0.04 in 0.08 in - ()
Sea Level Pressure  
Sea Level Pressure 30.14 in    
Wind  
Wind Speed 8 mph ()    
Max Wind Speed 16 mph    
Max Gust Speed -    
Visibility 7.3 miles    
Events Rain    
T = Trace of Precipitation, MM = Missing Value Source: Averaged Metar Reports

Daily Weather History Graph

Daily Weather History Graph

Search for Another Location

Airport or City:

Astronomy

Apr. 17, 2018 Rise Set
Actual Time 5:57 AM CEST 7:36 PM CEST
Civil Twilight 5:26 AM CEST 8:07 PM CEST
Nautical Twilight 4:48 AM CEST 8:46 PM CEST
Astronomical Twilight 4:06 AM CEST 9:28 PM CEST
Moon 7:05 AM CEST (4/17) 9:14 PM CEST (4/17)
Length of Visible Light 14h 41m
Length of Day
13h 38m
New Moon, 2% of the Moon is Illuminated
Apr 17
New Moon
Apr 22
First Quarter
Apr 30
Full
May 8
Last Quarter
May 15
New

Hourly Weather History & Observations

Time (CEST) Temp. Dew Point Humidity Pressure Visibility Wind Dir Wind Speed Gust Speed Precip Events Conditions
1:00 AM 57 °F 49 °F 65% 29.99 in - ENE 6.7 mph - -  
2:00 AM 56 °F 48 °F 67% 30.01 in - East 4.5 mph - -  
3:00 AM 55 °F 48 °F 71% 30.01 in - NNW 6.7 mph - -  
4:00 AM 56 °F 49 °F 71% 30.02 in - NW 4.5 mph - -  
5:00 AM 55 °F 49 °F 74% 30.03 in - North 6.7 mph - -  
6:00 AM 55 °F 49 °F 74% 30.04 in - NNW 4.5 mph - -  
7:00 AM 57 °F 51 °F 75% 30.06 in - NNE 8.9 mph - -  
7:15 AM - - N/A% - 5.0 mi NNE 11.5 mph - N/A   Overcast
7:45 AM 57.2 °F 53.6 °F 88% 30.09 in 3.7 mi NNE 10.4 mph - N/A   Overcast
8:00 AM 58 °F 54 °F 80% 30.09 in 4 mi NNE 11.2 mph - -   Partly Cloudy
8:15 AM 59.0 °F 53.6 °F 82% 30.09 in 4.3 mi North 12.7 mph - N/A   Overcast
8:45 AM 59.0 °F 53.6 °F 82% 30.12 in 4.3 mi North 15.0 mph - N/A   Overcast
9:00 AM 58 °F 53 °F 77% 30.12 in 4 mi North 15.7 mph - -   Partly Cloudy
9:15 AM 57.2 °F 53.6 °F 88% 30.12 in 3.7 mi North 13.8 mph - N/A Rain Light Rain
9:22 AM 57.2 °F 53.6 °F 88% 30.12 in - North 11.5 mph - N/A   Unknown
9:45 AM 57.2 °F 53.6 °F 88% 30.12 in 3.7 mi North 12.7 mph - N/A Rain Light Rain
10:15 AM 57.2 °F 51.8 °F 82% 30.15 in 5.0 mi North 11.5 mph - N/A Rain Light Rain
10:45 AM 59.0 °F 53.6 °F 82% 30.15 in 6.2 mi North 12.7 mph - N/A   Overcast
11:15 AM 60.8 °F 53.6 °F 77% 30.15 in 6.2 mi North 10.4 mph - N/A   Overcast
11:45 AM 62.6 °F 53.6 °F 72% 30.15 in 6.2 mi North 11.5 mph - N/A   Overcast
12:00 PM 62 °F 54 °F 66% 30.16 in 9 mi North 11.2 mph - -   Partly Cloudy
12:15 PM 60.8 °F 53.6 °F 77% 30.18 in 6.2 mi NNW 8.1 mph - N/A   Overcast
12:45 PM 60.8 °F 51.8 °F 72% 30.18 in 6.2 mi NNW 11.5 mph - N/A   Overcast
1:00 PM 61 °F 52 °F 64% 30.17 in 9 mi NNW 11.2 mph - -   Partly Cloudy
1:15 PM 60.8 °F 53.6 °F 77% 30.18 in 6.2 mi NNW 10.4 mph - N/A   Overcast
2:00 PM 62 °F 54 °F 66% 30.18 in 11 mi NNW 11.2 mph - -   Partly Cloudy
2:15 PM 60.8 °F 51.8 °F 72% 30.18 in 6.2 mi NNW 8.1 mph - N/A   Overcast
3:00 PM 61 °F 52 °F 64% 30.18 in 12 mi NW 11.2 mph - -   Partly Cloudy
3:45 PM 62.6 °F 51.8 °F 68% 30.18 in 6.2 mi NNW 8.1 mph - N/A   Overcast
4:00 PM 62 °F 53 °F 63% 30.18 in 16 mi NNW 6.7 mph - -   Partly Cloudy
4:15 PM 62.6 °F 51.8 °F 68% 30.18 in 6.2 mi North 8.1 mph - N/A   Overcast
4:45 PM 62.6 °F 51.8 °F 68% 30.18 in 6.2 mi NNE 10.4 mph - N/A   Overcast
5:00 PM 62 °F 52 °F 61% 30.18 in 16 mi NNE 8.9 mph - -   Partly Cloudy
5:15 PM 62.6 °F 51.8 °F 68% 30.18 in 6.2 mi NNE 8.1 mph - N/A   Overcast
5:45 PM 62.6 °F 51.8 °F 68% 30.18 in 6.2 mi NNE 9.2 mph - N/A   Overcast
6:00 PM 62 °F 52 °F 60% 30.18 in 16 mi NNE 8.9 mph - -   Partly Cloudy
6:15 PM 62.6 °F 53.6 °F 72% 30.18 in 6.2 mi NNE 5.8 mph - N/A   Overcast
6:45 PM 60.8 °F 51.8 °F 72% 30.18 in 6.2 mi NE 3.5 mph - N/A   Overcast
7:00 PM 61 °F 52 °F 65% 30.19 in 12 mi NE 2.2 mph - -   Partly Cloudy
7:00 PM - - N/A% - - North - - N/A   Unknown
8:00 PM 60 °F 53 °F 70% 30.20 in - NW 2.2 mph - -  
9:00 PM 59 °F 54 °F 77% 30.22 in - WNW 4.5 mph - -  
11:00 PM 58 °F 51 °F 71% 30.25 in - WNW 6.7 mph - -